Regional Weather Roundup
Issued by NWS Kansas City/Pleasant Hill, MO

Home | Current Version | Previous Version | Text Only | Print | Product List | Glossary On
Versions: 1 2 3 4 5 6 7 8 9 10 11 12 13 14 15 16 17 18 19 20 21 22 23 24 25 26 27 28
000
ASUS43 KEAX 191010
RWREAX

WEATHER ROUNDUP FOR EASTERN KANSAS AND NORTHWEST MISSOURI
NATIONAL WEATHER SERVICE KANSAS CITY/PLEASANT HILL MO
500 AM CDT TUE SEP 19 2017

KSZ040-057-103>105-MOZ028-029-037-043-191100-
...KANSAS CITY METROPOLITAN AREA...

CITY           SKY/WX    TMP DP  RH WIND       PRES   REMARKS
K.C. INTL      TSTM      69  67  93 S8        29.89S
K.C. DOWNTOWN  CLOUDY    70  69  97 E5        29.88F
LEES SUMMIT    FOG       66  66 100 E6        29.90F VSB 1/2
OLATHE - IXD   CLOUDY    67  66  97 SE7       29.88F
OLATHE - OJC   CLOUDY    66  66 100 E3        29.88F
LAWRENCE       CLOUDY    67  67 100 E8        29.86F

$$

MOZ001>008-011>017-020>025-030>033-038>040-044>046-053-054-191100-
...NORTHERN AND CENTRAL MISSOURI...

CITY           SKY/WX    TMP DP  RH WIND       PRES   REMARKS
ST. JOSEPH     MOCLDY    66  66 100 SE6       29.87F FOG
MOSBY          FOG       66  66 100 SE5       29.90S VSB 3/4
WARRENSBURG    FOG       63  63 100 CALM      29.90F VSB 1/4
WHITEMAN AFB   PTCLDY    64  64 100 SE3       29.90S FOG
CLINTON        FOG       63  63 100 CALM      29.91S VSB 3/4
SEDALIA        CLEAR     63  63 100 E5        29.93S
WARSAW         NOT AVBL
CHILLICOTHE      N/A     63  63 100 SE3       29.92S
KIRKSVILLE     FOG       64  64 100 CALM      29.94S VSB 1/4

$$

MOZ041-047>049-056>058-063>065-088>090-097-191100-
...EASTERN AND SOUTHERN MISSOURI...

CITY           SKY/WX    TMP DP  RH WIND       PRES   REMARKS
ST. LOUIS INTL FOG       67  67 100 CALM      29.94S VSB 1/2
SPIRIT OF STL  FOG       67  67 100 CALM      29.92F VSB 1/4
COLUMBIA       FOG       64  64 100 E3        29.94S VSB 1/4
JEFFERSON CITY FOG       64  62  93 SE5       29.93S VSB 1/2
ROLLA          FOG       63  63 100 CALM      29.96R VSB 1/4
OSAGE BEACH    FOG       64  63  96 CALM      29.94S VSB 1/4
SPRINGFIELD    CLEAR     66  66 100 SE5       29.93S FOG
BRANSON        FOG       63  63 100 CALM      29.96R VSB 1/2
JOPLIN         CLEAR     66  66 100 SE6       29.90F FOG
WEST PLAINS    FOG       63  62  97 CALM      29.97S VSB 1/2

$$

IAZ060-094-KSZ022-034>040-054-083-096-NEZ052-066-093-191100-
...KANSAS...SOUTHEAST NEBRASKA AND IOWA...

CITY           SKY/WX    TMP DP  RH WIND       PRES   REMARKS
TOPEKA         PTCLDY    66  66 100 E5        29.84F
MANHATTAN      CLEAR     70  66  87 SW6       29.82F
EMPORIA        CLEAR     66  64  93 S8        29.86F
CHANUTE        MOCLDY    68  65  90 SE5       29.88F
WICHITA        PTCLDY    67  67 100 S7        29.84F
OMAHA          CLOUDY    68  64  87 SE13      29.83F
LINCOLN        CLEAR     66  64  93 S8        29.81F
FALLS CITY     CLEAR     66  65  96 SE5       29.84F FOG
LAMONI         FOG       63  63 100 SE5       29.90S VSB 1/4
DES MOINES     FOG       64  64 100 SE8       29.89F VSB 1/8

$$





USA.gov is the U.S. government's official web portal to all federal, state and local government web resources and services.